User: anonymous   Login
Location: Bettgenhausen
(50.6463°N, 7.5681°E)
Time: 06:44:43
(UTC+00:00)
Language:

STARLINK-50 - Orbit

View from above orbital plane
View from above orbital plane
View from above satellite
View from above satellite

Ground track
Ground track

The orbit data is extracted from the following two-line orbital elements,

1 44285C 19029BC  20153.17576910  .00886237  00000-0  45044-1 0  1535
2 44285  53.0024 284.2402 0001415  96.0920 219.9560 15.15470546    19
Epoch (UTC): 01 June 2020 04:13:06
Eccentricity: 0.0001415
inclination: 53.0024°
perigee height: 518 km
apogee height: 520 km
right ascension of ascending node: 284.2402°
argument of perigee: 96.0920°
revolutions per day: 15.15470546
mean anomaly at epoch: 219.9560°
orbit number at epoch: 1

The dashed part of the orbit path shows where the satellite is in the earth's shadow,  

DLR